Location: Austin
(30.3000°N, 97.7500°W)
Time: 23:00:40
(UTC-05:00)

Cosmos 1339 Rocket - Pass Details

Date: 08 April 2026
Orbit: 942 x 1005 km, 82.9° (Epoch: 20 April)

Event Time Altitude Azimuth Distance (km) Brightness Sun altitude
Rises 21:56:22 0° 356° (N) 3,696 7.9 -25.8°
Reaches altitude 10° 21:58:55 10° 358° (N) 2,736 7.2 -26.3°
Maximum altitude 22:05:12 77° 84° (E) 994 4.3 -27.5°
Enters shadow 22:05:32 75° 119° (ESE) 1,003 4.3 -27.6°
